Theta_e
325 323 323 323 322 321 320 319 318 318 319 320 320 319 319 319 320 320 320 320 320 320 320 321 321 321 320 320 320 319 320 321 320 319 319 318 318 318 317 316 314 312
321 320 321 322 321 320 319 318 318 319 319 319 319 318 318 318 318 319 319 318 317 317 318 319 319 319 318 318 317 317 317 317 317 316 316 315 315 315 315 314 314 312
320 318 318 318 319 318 315 313 314 316 319 319 317 318 318 316 316 316 317 316 314 314 315 316 316 315 315 314 314 314 314 314 314 314 314 313 312 312 312 313 314 313
319 317 315 316 317 316 314 312 310 311 316 319 317 316 317 316 315 314 314 313 312 311 311 313 314 313 312 312 312 312 312 312 311 311 311 311 311 311 311 313 314 314
318 315 315 318 316 313 314 315 311 309 313 317 317 317 316 315 315 314 313 313 311 311 310 311 311 311 311 311 311 310 310 310 310 310 310 311 311 311 312 313 314 314
318 314 315 316 314 311 312 315 313 310 309 310 312 316 316 315 315 314 314 313 312 312 310 310 310 311 311 311 311 310 309 310 311 311 310 310 311 311 312 313 313 314
318 315 314 315 314 312 312 313 313 313 312 310 312 316 317 315 314 315 314 313 313 313 312 311 311 311 312 311 311 311 311 311 311 312 310 311 310 311 312 312 312 312
319 318 318 317 316 315 316 316 315 315 315 315 315 317 317 315 314 315 315 314 314 315 315 313 312 312 313 313 313 312 312 312 312 312 311 311 311 310 311 312 312 311
322 322 321 319 318 318 321 322 319 316 315 316 317 317 316 316 316 315 315 315 315 315 316 316 314 314 314 315 315 315 314 314 314 313 313 313 312 311 310 311 311 311
324 323 322 322 320 320 322 324 322 319 318 318 319 318 316 315 316 316 315 315 315 315 315 315 316 315 315 315 315 315 315 316 315 315 315 315 314 313 312 312 312 312
324 324 323 322 322 321 323 324 323 322 321 320 320 320 318 316 316 316 315 315 314 314 314 314 315 316 315 315 315 315 315 316 316 316 316 316 316 315 314 314 314 314
324 323 323 323 323 322 323 324 323 322 322 322 321 320 320 319 317 316 316 315 315 314 314 314 315 316 316 317 317 318 318 318 318 318 317 316 316 316 316 316 315 315
324 323 323 323 323 323 323 323 322 321 322 322 321 321 321 320 319 318 317 316 316 316 315 316 317 318 319 318 319 320 320 320 320 320 319 318 318 317 316 316 316 316
324 324 323 323 323 322 322 323 322 322 322 322 321 321 321 321 320 319 318 318 318 318 319 319 319 319 318 318 319 320 320 320 321 321 321 320 320 319 318 318 317 317
324 324 323 323 322 322 323 323 322 322 321 321 321 321 321 322 321 320 319 319 320 320 320 318 317 317 316 316 317 318 318 318 318 320 320 320 320 320 319 319 318 317
324 324 324 323 323 322 322 323 322 322 321 321 320 320 321 321 321 320 320 320 320 320 319 316 315 314 314 315 316 315 315 315 316 318 318 320 320 318 318 319 319 319
323 324 324 324 324 323 322 322 322 322 322 321 321 321 320 321 321 320 320 320 320 320 318 315 314 314 314 315 315 314 313 313 315 316 317 318 319 318 318 319 319 319
322 322 323 323 323 323 323 323 322 322 323 322 321 321 320 320 321 320 320 320 319 318 317 315 314 314 314 314 314 314 313 312 314 316 315 314 316 317 317 317 317 318
321 321 321 321 322 322 322 322 322 322 322 322 322 322 320 319 319 319 319 318 317 318 317 317 317 316 315 314 315 314 313 313 314 314 313 312 315 317 316 317 317 317
317 320 320 321 321 321 321 321 321 321 321 322 322 322 320 319 319 319 318 318 318 318 318 319 319 318 316 315 314 313 313 313 314 314 314 315 315 315 315 315 315 316
313 316 318 320 320 320 320 320 321 321 321 322 321 321 321 320 319 319 319 318 319 319 319 320 319 319 317 314 312 313 312 312 313 314 314 315 314 313 313 313 313 313
309 311 314 316 318 319 320 320 320 321 321 321 321 320 320 320 319 319 319 319 320 320 320 320 319 319 317 313 312 312 311 310 313 314 313 313 313 312 312 312 312 313
308 309 310 312 314 317 319 320 320 320 321 321 321 320 320 319 319 319 319 320 320 320 319 319 320 319 316 313 313 312 309 310 313 312 311 312 311 311 311 310 309 310
308 308 309 310 312 313 316 318 319 321 321 321 321 320 320 320 319 319 319 319 319 319 318 318 318 317 315 314 313 310 309 312 312 311 311 311 310 310 309 307 307 307
306 307 308 309 310 311 313 315 317 319 320 321 320 320 320 319 319 319 319 318 318 317 317 317 316 315 315 314 311 308 309 312 311 311 311 310 309 309 307 306 305 306
305 306 307 308 308 310 311 313 314 316 318 320 320 320 319 318 318 318 318 317 316 316 316 316 316 316 314 312 309 308 310 312 311 311 311 309 308 308 307 305 304 303
Wind_Speed
10 8 8 7 7 8 9 9 9 9 8 8 10 10 9 9 8 9 9 9 9 8 8 7 8 7 7 6 6 6 7 8 8 7 7 7 6 6 5 5 6 6
14 11 8 8 8 9 11 11 11 10 8 7 9 9 9 8 8 8 9 9 9 9 9 8 8 7 6 6 6 6 7 7 7 6 6 6 5 6 6 6 7 7
15 11 10 10 10 11 13 13 13 11 8 7 8 8 7 7 8 8 9 9 9 9 9 8 8 7 6 6 6 7 7 7 6 6 6 6 6 6 6 6 7 7
15 13 12 11 12 12 12 13 15 13 9 7 8 7 7 7 8 8 8 9 9 9 9 9 8 7 7 7 7 7 7 7 7 6 7 6 6 6 6 6 7 7
17 16 14 12 12 12 11 12 14 13 9 7 7 7 7 7 7 8 8 8 9 9 9 9 8 8 8 8 8 8 8 8 7 7 7 7 7 7 6 6 7 7
19 18 16 14 13 13 11 11 12 13 10 9 7 6 7 8 8 8 8 9 9 9 9 9 8 8 8 8 8 8 8 8 8 7 7 7 7 7 6 7 6 6
21 19 16 14 13 13 12 10 10 10 10 9 8 7 7 8 8 8 9 9 9 9 9 9 8 8 8 8 8 8 7 7 7 6 7 7 6 6 6 6 5 5
21 18 15 14 14 12 10 9 9 9 9 9 9 7 7 7 8 9 9 9 9 9 9 9 8 8 7 7 7 7 7 6 6 6 6 6 6 6 5 5 4 4
18 16 15 14 13 11 8 7 8 8 8 9 9 8 8 7 8 9 9 9 8 8 8 8 8 8 7 7 7 7 6 5 5 5 5 5 5 5 5 5 4 4
16 16 15 14 13 12 9 7 8 8 7 7 8 9 9 9 9 9 10 10 9 9 8 8 8 8 7 6 6 5 5 5 4 4 4 4 4 4 4 5 4 4
14 14 15 14 13 12 10 8 7 7 6 6 7 8 9 10 10 10 11 11 10 10 9 9 8 8 7 7 6 5 5 4 4 4 4 4 4 4 4 4 5 5
13 13 14 14 13 12 11 8 7 7 7 7 8 8 8 10 10 11 11 11 11 11 10 10 9 8 8 7 6 5 4 4 3 3 4 4 5 5 6 6 6 6
12 13 13 12 12 12 11 9 8 9 10 9 9 8 9 10 11 12 12 12 12 12 12 11 11 10 9 7 6 5 4 2 1 2 3 4 5 6 6 7 8 8
10 12 13 13 12 12 11 10 9 9 10 10 10 9 9 10 12 13 13 13 14 14 14 14 12 11 9 8 5 4 3 3 2 2 3 4 6 7 8 8 9 9
8 9 11 12 13 12 11 10 10 10 10 10 11 10 10 10 11 13 14 14 15 15 16 17 16 13 12 10 7 4 2 3 4 4 5 6 7 8 8 9 9 10
7 8 9 11 12 12 11 10 11 12 11 11 12 12 11 11 12 14 15 16 16 15 17 19 20 18 17 15 12 6 2 3 5 5 6 7 8 10 10 9 9 9
5 7 8 9 10 11 11 11 12 13 13 13 13 13 13 14 15 16 17 17 17 17 17 19 20 19 19 21 19 14 9 9 8 6 7 8 8 10 11 9 8 8
4 5 7 8 8 9 10 11 13 14 14 13 14 15 16 15 16 18 18 18 18 17 19 20 20 20 21 22 22 21 21 17 11 7 8 9 9 9 10 9 8 8
3 4 6 7 7 8 9 11 13 14 15 15 15 16 18 18 19 20 20 19 18 18 19 20 22 24 24 23 23 24 24 19 11 8 9 9 8 8 7 6 5 5
3 4 6 7 7 8 9 11 13 14 15 15 14 15 17 19 20 21 21 19 19 19 19 18 19 21 22 22 25 25 22 17 12 10 9 8 8 7 5 4 3 2
5 3 5 6 7 8 10 11 12 14 15 14 14 15 16 17 19 21 20 20 20 20 19 18 18 20 20 21 23 23 20 16 12 11 9 7 7 6 4 3 2 2
8 6 5 6 7 9 10 11 12 14 14 13 13 14 15 16 18 19 20 21 20 19 19 18 17 20 22 23 23 22 19 16 13 11 10 8 7 6 5 4 4 3
9 8 7 6 7 9 10 12 13 13 13 13 13 14 15 16 17 17 18 19 18 17 17 16 16 20 22 23 24 23 20 17 14 13 11 10 9 7 6 6 6 6
10 10 9 8 7 8 9 11 13 13 13 13 14 15 16 16 16 17 18 18 17 16 15 14 15 18 22 24 25 25 22 17 14 13 11 10 10 8 7 7 8 7
11 11 11 10 9 9 9 10 11 13 14 14 14 15 16 17 16 17 18 20 20 17 15 16 16 20 24 26 26 26 22 16 14 13 12 11 10 9 8 8 8 7
12 12 12 12 12 11 10 9 9 11 13 15 16 16 16 16 16 17 17 20 22 21 20 20 21 24 27 27 26 26 22 16 13 13 13 11 11 10 10 9 9 8
Wind_Direction
192 177 162 158 156 145 135 127 123 122 124 125 120 115 110 105 107 109 106 102 100 98 98 99 100 101 96 89 89 102 108 104 103 106 108 110 114 113 111 109 107 107
198 187 166 154 156 152 140 130 125 121 119 122 118 111 107 104 104 106 105 102 100 100 101 103 104 102 97 93 93 101 106 103 100 103 108 111 114 113 111 109 106 106
191 183 169 162 164 159 147 135 129 125 123 121 118 112 103 99 101 103 103 103 101 102 104 106 107 101 99 103 104 105 109 108 105 109 112 111 112 116 114 112 110 108
185 177 173 173 168 158 155 148 132 128 137 130 119 120 114 105 105 105 105 104 102 103 105 106 106 103 104 108 109 108 109 109 109 112 112 109 110 113 112 112 110 107
181 176 175 177 163 148 161 164 133 123 139 135 121 127 127 121 117 114 115 112 109 109 108 109 109 109 112 113 112 111 111 112 112 112 112 109 111 111 110 114 111 105
180 176 175 174 162 151 167 170 130 118 131 134 137 150 141 136 132 128 130 127 123 122 119 120 118 117 119 119 119 119 119 122 121 119 116 113 117 117 117 122 120 112
181 180 179 176 171 170 179 174 141 133 146 150 159 170 157 148 145 141 143 142 140 137 133 132 128 124 125 124 124 124 124 127 130 128 124 121 124 125 127 134 134 128
182 185 189 187 183 184 187 177 156 151 164 173 176 179 170 158 153 153 154 152 151 147 143 141 137 134 133 130 130 129 127 131 135 134 130 130 135 137 138 142 146 145
187 192 197 193 190 192 190 179 169 165 175 185 186 187 186 172 161 162 162 158 156 153 149 149 147 146 144 140 138 137 137 139 141 140 137 139 147 152 153 154 159 162
201 202 199 196 197 201 198 187 179 179 183 187 188 192 195 191 179 171 168 166 164 161 160 160 158 157 156 153 152 151 150 150 153 159 160 164 168 166 165 168 175 182
208 204 201 203 206 206 204 198 187 186 190 191 193 194 195 198 192 181 176 175 173 170 169 167 165 164 162 161 162 163 164 165 171 179 188 196 202 202 202 200 200 204
207 205 206 209 209 206 205 204 204 208 208 204 203 199 197 199 198 192 186 181 178 176 172 168 165 162 157 156 158 159 162 167 172 188 203 211 215 219 222 223 222 223
213 215 215 215 211 206 205 206 209 213 215 213 208 203 203 203 200 197 192 185 181 176 171 166 161 155 150 147 149 149 147 149 172 208 227 230 234 236 233 232 235 235
222 224 223 221 217 211 209 208 207 207 210 211 209 207 211 211 205 199 191 185 179 173 169 164 158 156 155 151 144 136 112 66 30 342 304 275 258 253 247 245 247 246
229 229 226 224 221 219 217 210 206 206 208 210 208 205 207 209 205 197 188 183 179 172 172 174 173 176 180 175 163 149 120 48 22 351 317 302 287 273 262 257 258 257
236 237 234 230 228 229 229 223 219 215 210 212 213 208 204 202 199 193 186 184 181 176 179 187 191 196 203 203 195 183 194 342 359 345 314 303 293 284 276 268 265 262
243 246 248 246 240 238 235 234 237 231 219 215 214 209 204 198 195 194 191 189 188 185 188 196 201 206 211 212 209 209 236 274 306 317 301 292 282 279 280 277 273 266
246 253 258 258 255 250 243 239 241 240 234 226 213 203 201 201 201 201 197 196 198 199 202 210 220 227 225 220 218 221 229 243 267 279 272 275 277 276 278 279 278 274
254 252 256 260 260 256 252 247 245 244 243 238 223 210 208 210 210 206 202 204 209 214 220 225 236 245 243 234 232 231 226 226 236 239 238 251 258 260 266 269 274 278
289 260 256 260 258 253 250 246 245 245 245 243 233 220 213 209 208 206 207 214 219 223 228 230 234 245 248 237 230 227 219 213 218 220 220 229 232 231 233 230 230 236
3 317 278 268 261 257 253 247 244 244 245 243 235 225 218 213 211 212 217 226 228 225 229 232 232 237 238 226 216 211 205 201 203 201 195 194 195 195 188 178 174 156
9 357 328 296 276 264 257 251 246 242 241 242 235 229 227 224 223 223 225 229 230 227 228 229 228 230 226 212 201 196 190 187 185 179 173 169 163 157 149 145 140 124
355 353 346 327 300 279 266 259 252 243 238 238 234 230 230 230 229 229 228 228 230 231 228 225 225 224 216 203 193 186 178 175 175 170 163 159 151 144 143 150 150 137
341 340 340 335 320 298 281 269 259 249 240 236 232 231 232 234 236 234 231 229 229 230 227 225 224 216 205 196 188 180 172 172 173 165 158 154 148 142 140 145 149 143
333 332 331 330 325 314 298 282 267 255 246 238 233 233 238 244 244 241 236 230 229 232 228 215 205 199 196 192 184 175 171 173 172 163 159 159 154 146 137 133 138 142
323 324 326 325 321 317 307 293 276 262 252 242 235 235 240 244 243 241 237 231 230 231 225 213 204 196 190 187 182 176 173 172 172 168 164 163 160 151 143 137 132 133